Regional Weather Roundup
Issued by NWS Binghamton, NY

Home | Current Version | Previous Version | Text Only | Print | Product List | Glossary On
Versions: 1 2 3 4 5 6 7 8 9 10 11 12 13 14 15 16 17 18 19 20 21 22 23 24 25 26 27 28 29 30 31 32 33 34 35 36 37 38 39 40 41 42 43 44 45 46 47 48 49 50
800
ASUS41 KBGM 250010
RWRBGM

REGIONAL WEATHER ROUNDUP
NATIONAL WEATHER SERVICE BINGHAMTON NY
800 PM EDT WED MAY 24 2017

Note: "fair" indicates few or no clouds below 12,000 feet with no
significant weather and/or obstructions to visibility.

* = Station(s) that does not report precipitation, such as rain,
snow, etc, also no thunder or fog.

NYZ009-015>018-022>025-036-037-044>046-055>057-062-250100
...Central New York...

CITY           SKY/WX    TMP DP  RH WIND       PRES   REMARKS
Binghamton     CLOUDY    64  47  53 SE12      29.74S
Cortland       FAIR      68  46  45 SE7       29.72S
Dansville      CLOUDY    70  46  42 SE10      29.65R
Elmira         CLEAR     70  47  43 S7        29.68S
Ithaca         PTCLDY    69  46  43 SE12      29.71S
Hamilton       CLOUDY    70  45  40 S6        29.74R
Hornell        PTCLDY    70  45  40 SE13G18   29.69S
Monticello     CLOUDY    63  48  59 S7        29.80R
Norwich        CLEAR     68  45  42 S9        29.75R
Oneonta        CLEAR     64  10  12 CALM      29.77R
Penn Yan       PTCLDY    69  44  40 SE7       29.68S
Rome           CLEAR     70  50  49 E7        29.72S
Sidney         CLEAR     68  50  52 S3        29.75R
Syracuse       PTCLDY    70  50  49 E6        29.68R
$$

PAZ038>040-043-044-047-048-072-250100
...Northeast Pennsylvania...

CITY           SKY/WX    TMP DP  RH WIND       PRES   REMARKS
Hazleton       CLOUDY    63  48  59 E7        29.78S
Scranton       CLOUDY    67  48  50 SE5       29.74S
$$
&&
KEY
WCI = Wind Chill Index
VSB = Visibility
HX  = Heat Index
$$




USA.gov is the U.S. government's official web portal to all federal, state and local government web resources and services.